Location: ??????
(55.6361°N, 38.0803°E)
Time: 01:30:36
(UTC+00:00)

ATLAS 5 CENTAUR R/B - Pass Details

Date: 30 March 2020
Orbit: 543 x 1116 km, 63.4° (Epoch: 01 May)

Event Time Altitude Azimuth Distance (km) Brightness Sun altitude
Exits shadow 01:20:48 - 301° (WNW) 3,018 4.8 -14.4°
Reaches altitude 10° 01:22:57 10° 307° (NW) 2,222 4.2 -14.2°
Maximum altitude 01:27:54 47° 22° (NNE) 1,069 3.1 -13.6°
Drops below altitude 10° 01:33:41 10° 95° (E) 2,598 5.7 -12.8°
Sets 01:36:32 0° 102° (ESE) 3,632 6.4 -12.5°
